TimeAST,TemperatureF,Dew PointF,Humidity,Sea Level PressureIn,VisibilityMPH,Wind Direction,Wind SpeedMPH,Gust SpeedMPH,PrecipitationIn,Events,Conditions,WindDirDegrees,DateUTC
12:00 AM,80.6,73.4,79,29.92,6.2,ESE,4.6,-,N/A,,Partly Cloudy,110,2013-11-07 04:00:00
1:00 AM,80.6,73.4,79,29.89,6.2,Variable,3.5,-,N/A,,Partly Cloudy,0,2013-11-07 05:00:00
2:00 AM,80,72,70,29.90,19,ENE,3.5,,,,Partly Cloudy,70,2013-11-07 06:00:00
2:00 AM,78.8,71.6,78,29.89,6.2,Variable,3.5,-,N/A,,Partly Cloudy,0,2013-11-07 06:00:00
3:00 AM,78.8,71.6,78,29.89,6.2,Variable,3.5,-,N/A,,Partly Cloudy,0,2013-11-07 07:00:00
4:00 AM,78.8,71.6,78,29.86,6.2,Variable,3.5,-,N/A,,Partly Cloudy,0,2013-11-07 08:00:00
5:00 AM,79,72,74,29.88,6,,1.2,,,Rain,Light Rain Showers,,2013-11-07 09:00:00
5:00 AM,78.8,71.6,78,29.86,6.2,Variable,2.3,-,N/A,Rain,Light Rain Showers,0,2013-11-07 09:00:00
6:00 AM,78.8,73.4,83,29.89,6.2,Variable,3.5,-,N/A,,Scattered Clouds,0,2013-11-07 10:00:00
7:00 AM,80.6,73.4,79,29.89,6.2,East,4.6,-,N/A,,Scattered Clouds,90,2013-11-07 11:00:00
8:00 AM,81,74,72,29.92,37,ESE,4.6,,,,,120,2013-11-07 12:00:00
8:00 AM,80.6,73.4,79,29.92,6.2,ESE,4.6,-,N/A,,Scattered Clouds,110,2013-11-07 12:00:00
9:00 AM,82.4,73.4,74,29.92,6.2,ESE,8.1,-,N/A,,Partly Cloudy,120,2013-11-07 13:00:00
10:00 AM,84.2,73.4,70,29.95,6.2,ESE,6.9,-,N/A,,Partly Cloudy,110,2013-11-07 14:00:00
11:00 AM,85,72,56,29.94,44,East,9.2,,,,Partly Cloudy,100,2013-11-07 15:00:00
11:00 AM,84.2,71.6,66,29.92,6.2,East,9.2,-,N/A,,Scattered Clouds,100,2013-11-07 15:00:00
12:00 PM,84.2,73.4,70,29.92,6.2,SE,9.2,-,N/A,,Scattered Clouds,130,2013-11-07 16:00:00
1:00 PM,84.2,71.6,66,29.89,6.2,SE,8.1,-,N/A,,Scattered Clouds,130,2013-11-07 17:00:00
2:00 PM,84,73,62,29.88,44,SE,10.4,,,,Partly Cloudy,130,2013-11-07 18:00:00
2:00 PM,84.2,73.4,70,29.86,6.2,SE,10.4,-,N/A,,Scattered Clouds,130,2013-11-07 18:00:00
3:00 PM,84.2,73.4,70,29.86,6.2,SE,9.2,-,N/A,,Mostly Cloudy,130,2013-11-07 19:00:00
4:00 PM,84.2,73.4,70,29.86,6.2,ESE,8.1,-,N/A,,Scattered Clouds,120,2013-11-07 20:00:00
5:00 PM,83,72,62,29.88,44,East,6.9,,,Rain,Light Rain Showers,100,2013-11-07 21:00:00
5:00 PM,82.4,71.6,70,29.86,6.2,East,6.9,-,N/A,,Scattered Clouds,100,2013-11-07 21:00:00
6:00 PM,82.4,71.6,70,29.89,6.2,East,4.6,-,N/A,,Partly Cloudy,100,2013-11-07 22:00:00
7:00 PM,82.4,73.4,74,29.89,6.2,East,5.8,-,N/A,,Partly Cloudy,100,2013-11-07 23:00:00
8:00 PM,81,73,70,29.92,22,East,5.8,,,,Clear,90,2013-11-08 00:00:00
8:00 PM,80.6,73.4,79,29.92,6.2,East,5.8,-,N/A,,Partly Cloudy,90,2013-11-08 00:00:00
9:00 PM,80.6,73.4,79,29.92,6.2,Variable,3.5,-,N/A,,Partly Cloudy,0,2013-11-08 01:00:00
10:00 PM,80.6,73.4,79,29.92,6.2,East,4.6,-,N/A,,Scattered Clouds,100,2013-11-08 02:00:00
11:00 PM,81,74,74,29.94,22,ESE,5.8,,,,Partly Cloudy,110,2013-11-08 03:00:00
11:00 PM,80.6,73.4,79,29.92,6.2,East,4.6,-,N/A,,Partly Cloudy,100,2013-11-08 03:00:00